x

9432780 - Charleston, Or (chao3) Weather Station

5:36pm - Sun 19th Apr 2015 All times are PDT. -7 hours from GMT.

  • Wind
    8mph, 14mph gusts
  • Sea Temp 50°f
  • Sea Pressure 1015mb
  • 9432780 - Charleston, Or
  • 9432780 - Charleston, Or

More Historic Weather Station data

Upgrade to MSW Pro to gain access to the past 30 days of data for over 8000 Wavebouys and Weather Stations around the globe.

Join Pro

Comparision Forecast

View Surf forecast
   
Sun 04/19 5:36pm 8 14 mph 1015mb 50f
5:30pm 8 15 mph 1015mb 50f
5:24pm 7 13 mph 1015mb 50f
5:18pm 8 15 mph 1015mb 50f
5:12pm 10 14 mph 1015.1mb 50f
5:06pm 9 17 mph 1015.1mb 50f
5:00pm 9 14 mph 1015.1mb 50f
4:36pm 9 16 mph 1015.3mb 50f
4:30pm 11 18 mph 1015.4mb 50f
4:24pm 11 18 mph 1015.5mb 49f
4:18pm 11 17 mph 1015.5mb 49f
4:12pm 13 17 mph 1015.5mb 49f
4:06pm 10 15 mph 1015.5mb 49f
4:00pm 10 16 mph 1015.6mb 49f
3:36pm 9 16 mph 1015.9mb 49f
3:30pm 10 16 mph 1016mb 49f
3:24pm 13 16 mph 1016.1mb 49f
3:18pm 9 16 mph 1016.2mb 49f
3:12pm 10 15 mph 1016.2mb 49f
3:06pm 8 20 mph 1016.3mb 49f
3:00pm 11 16 mph 1016.3mb 49f
2:36pm 11 20 mph 1016.4mb 49f
2:30pm 11 20 mph 1016.5mb 49f
2:24pm 10 18 mph 1016.5mb 48f
2:18pm 9 16 mph 1016.6mb 48f
2:12pm 11 16 mph 1016.6mb 48f
2:06pm 9 16 mph 1016.6mb 48f
2:00pm 13 20 mph 1016.6mb 48f
1:36pm 15 20 mph 1016.7mb 48f
1:30pm 10 16 mph 1016.8mb 48f
1:24pm 11 17 mph 1016.9mb 48f
1:18pm 10 17 mph 1017mb 48f
1:12pm 13 18 mph 1017mb 48f
1:06pm 11 18 mph 1017.1mb 48f
1:00pm 10 18 mph 1017.1mb 48f
12:36pm 11 16 mph 1017.4mb 48f
12:30pm 9 16 mph 1017.5mb 48f
12:24pm 10 16 mph 1017.6mb 48f
12:18pm 8 16 mph 1017.6mb 48f
12:12pm 10 18 mph 1017.6mb 48f
12:06pm 9 18 mph 1017.7mb 48f
12:00pm 9 17 mph 1017.7mb 49f
11:36am 7 13 mph 1017.9mb 49f
11:30am 7 10 mph 1018mb 49f
11:24am 8 14 mph 1018mb 50f
11:18am 6 13 mph 1018mb 50f
11:12am 7 15 mph 1017.9mb 51f
11:06am 6 13 mph 1018mb 52f
11:00am 9 13 mph 1018mb 52f
10:36am 9 13 mph 1018mb 53f
10:30am 8 14 mph 1018mb 53f
10:24am 10 14 mph 1018mb 54f
10:18am 8 13 mph 1018.1mb 54f
10:12am 9 14 mph 1018.2mb 54f
10:06am 8 10 mph 1018.3mb 54f
10:00am 8 11 mph 1018.3mb 54f
9:36am 3 8 mph 1018.3mb 54f
9:30am 6 10 mph 1018.4mb 54f
9:24am 7 10 mph 1018.5mb 54f
9:18am 5 11 mph 1018.5mb 54f
9:12am 10 14 mph 1018.5mb 54f
9:06am 9 15 mph 1018.5mb 54f
9:00am 8 10 mph 1018.6mb 54f
8:36am 3 7 mph 1018.7mb 54f
8:30am 3 6 mph 1018.8mb 53f
8:24am 5 7 mph 1018.8mb 53f
8:18am 2 6 mph 1018.8mb 53f
8:12am 3 6 mph 1018.8mb 52f
8:06am  -  2 mph 1018.8mb 52f
8:00am  -  1 mph 1018.8mb 51f
7:36am 1 3 mph - -
7:30am  -  2 mph 1018.7mb 51f
7:24am  -  mph - -
7:18am  -  1 mph 1018.6mb 50f
7:12am  -  1 mph 1018.6mb 50f
7:06am  -  1 mph 1018.6mb 50f
7:00am  -  1 mph 1018.6mb 50f
6:36am 5 10 mph 1018.6mb 50f
6:30am 7 11 mph 1018.6mb 50f
6:24am 10 13 mph 1018.5mb 50f
6:18am 10 13 mph 1018.5mb 50f
6:12am 9 13 mph 1018.5mb 50f
6:06am 9 13 mph 1018.5mb 50f
6:00am 5 11 mph 1018.5mb 50f
5:36am 3 13 mph 1018.5mb 50f
5:30am 8 14 mph 1018.5mb 50f
5:24am 7 13 mph 1018.5mb 50f
5:18am 10 14 mph 1018.6mb 50f
5:12am 11 16 mph 1018.7mb 50f
5:06am 9 14 mph 1018.6mb 50f
5:00am 7 15 mph 1018.6mb 50f
4:36am 8 15 mph 1018.7mb 50f
4:30am 10 15 mph 1018.8mb 50f
4:24am 11 16 mph 1018.9mb 50f
4:18am 6 17 mph 1018.9mb 50f
4:12am 13 18 mph 1018.9mb 50f
4:06am 15 21 mph 1019mb 50f
4:00am 9 15 mph 1019mb 50f
3:36am 7 11 mph 1018.8mb 50f
3:30am 6 10 mph 1018.9mb 50f
3:24am 6 9 mph 1018.9mb 50f
3:18am 6 8 mph 1018.9mb 50f
3:12am 8 11 mph 1018.9mb 49f
3:06am 6 10 mph 1018.9mb 49f
3:00am 8 13 mph 1018.9mb 49f
2:36am 6 10 mph 1018.8mb 49f
2:30am 6 10 mph 1018.9mb 49f
2:24am 5 9 mph 1018.8mb 49f
2:18am 6 9 mph 1018.9mb 49f
2:12am 5 9 mph 1018.9mb 49f
2:06am 8 13 mph 1019mb 49f
2:00am 9 15 mph 1019mb 49f
1:36am 8 13 mph 1019.2mb 49f
1:30am 8 13 mph 1019.2mb 49f
1:24am 7 13 mph 1019.3mb 49f
1:18am 7 13 mph 1019.3mb 49f
1:12am 9 13 mph 1019.3mb 49f
1:06am 7 10 mph 1019.3mb 49f
1:00am 7 13 mph 1019.4mb 49f
12:36am 7 9 mph 1019.5mb 49f
12:30am 6 10 mph 1019.5mb 49f
12:24am 8 14 mph 1019.5mb 49f
12:18am 10 15 mph 1019.5mb 49f
12:12am 11 20 mph 1019.5mb 49f
12:06am 14 20 mph 1019.4mb 49f
12:00am 14 21 mph 1019.4mb 49f
Sat 04/18 11:30pm  -  mph 1019.5mb 49f
11:12pm  -  mph 1019.6mb 49f
10:36pm 13 21 mph 1019.8mb 49f
10:30pm 15 20 mph 1019.9mb 50f
10:24pm 15 20 mph 1020mb 50f
10:18pm 10 18 mph 1020mb 50f
10:12pm 15 20 mph 1020mb 51f
10:06pm 16 20 mph 1019.9mb 52f
10:00pm 15 20 mph 1019.9mb 52f
9:36pm 20 23 mph 1020mb 54f
9:30pm 16 24 mph 1020mb 54f
9:24pm 16 22 mph 1020mb 54f
9:18pm 16 21 mph 1020mb 54f
9:12pm 17 24 mph 1020mb 55f
9:06pm 17 25 mph 1019.9mb 55f
9:00pm 13 23 mph 1019.8mb 55f
8:36pm 14 24 mph 1019.8mb 55f
8:30pm 15 21 mph 1019.9mb 56f
8:24pm 13 20 mph 1019.9mb 56f
8:18pm 11 15 mph 1020mb 56f
8:12pm 7 14 mph 1020mb 56f
8:06pm 8 14 mph 1020mb 56f
8:00pm 7 11 mph 1020.1mb 56f
7:36pm 8 13 mph 1020.1mb 56f
Thu 04/16 2:36pm 15 22 mph 1022.4mb 53f
2:30pm 11 22 mph 1022.5mb 53f
2:24pm 11 21 mph 1022.5mb 53f
2:18pm 14 23 mph 1022.6mb 53f
2:12pm 13 24 mph 1022.6mb 53f
2:06pm 14 24 mph 1022.8mb 53f
2:00pm 14 23 mph 1022.9mb 53f
1:54pm 15 22 mph 1022.9mb 53f
1:48pm 16 23 mph 1022.9mb 53f
1:36pm 16 22 mph 1023.1mb 53f
1:30pm 15 21 mph 1023.1mb 53f
1:24pm 11 20 mph 1023.1mb 53f
1:18pm 14 21 mph 1023.2mb 53f
1:12pm 13 18 mph 1023.2mb 53f
1:06pm 14 22 mph 1023.3mb 53f
1:00pm 14 22 mph 1023.4mb 53f
12:54pm 11 20 mph 1023.5mb 53f
12:48pm 11 22 mph 1023.5mb 53f
12:36pm 10 20 mph 1023.6mb 53f
12:30pm 11 17 mph 1023.7mb 53f
12:24pm 11 17 mph 1023.7mb 53f
12:18pm 9 18 mph 1023.8mb 53f
12:12pm 10 18 mph 1023.8mb 53f
12:06pm 11 18 mph 1023.9mb 53f
12:00pm 11 20 mph 1024mb 53f
11:54am 10 20 mph 1024mb 53f
11:48am 13 20 mph 1024.1mb 53f
11:36am 10 20 mph 1024.1mb 53f
11:30am 13 21 mph 1024.2mb 53f
11:24am 10 18 mph 1024.2mb 53f
11:18am 9 17 mph 1024.3mb 53f
11:12am 10 17 mph 1024.3mb 53f
11:06am 9 18 mph 1024.3mb 53f
11:00am 8 15 mph 1024.3mb 53f
10:54am 9 16 mph 1024.4mb 53f
10:48am 8 16 mph 1024.4mb 53f
10:36am 8 16 mph 1024.5mb 53f
10:30am 9 16 mph 1024.5mb 53f
10:24am 10 16 mph 1024.6mb 53f
10:18am 11 17 mph 1024.7mb 53f
10:12am 9 16 mph 1024.7mb 53f
10:06am 9 16 mph 1024.8mb 53f
10:00am 8 15 mph 1024.9mb 53f
9:54am 7 17 mph 1024.9mb 53f
9:48am 11 16 mph 1025mb 53f
9:36am 9 17 mph 1025.1mb 53f
9:30am 10 17 mph 1025.2mb 53f
9:24am 10 17 mph 1025.2mb 53f
9:18am 13 18 mph 1025.3mb 53f
9:12am 11 15 mph 1025.3mb 53f
9:06am 10 15 mph 1025.4mb 53f
9:00am 14 15 mph 1025.5mb 53f
8:54am 10 16 mph 1025.5mb 53f
8:48am 11 14 mph 1025.5mb 53f
8:36am 13 16 mph 1025.6mb 54f
8:30am 10 15 mph 1025.7mb 54f
8:24am 11 14 mph 1025.8mb 54f
8:18am 9 13 mph 1025.8mb 54f
8:12am 7 11 mph 1025.9mb 54f
8:06am 8 11 mph 1025.9mb 54f
8:00am 8 10 mph 1025.9mb 54f
7:54am 9 10 mph 1025.9mb 54f
7:48am 10 13 mph 1025.9mb 54f
7:36am 11 15 mph 1026mb 54f
7:30am 13 15 mph 1026mb 54f
7:24am 11 14 mph 1026mb 54f
7:18am 11 14 mph 1026mb 54f
7:12am 11 13 mph 1026mb 54f
7:06am 10 13 mph 1026mb 54f
7:00am 11 14 mph 1026mb 54f
6:54am 9 11 mph 1026.1mb 54f
6:48am 8 11 mph 1026.1mb 54f
6:36am 9 11 mph 1026.2mb 54f
6:30am 9 11 mph 1026.2mb 54f
6:24am 9 11 mph 1026.2mb 54f
6:18am 10 11 mph 1026.2mb 54f
6:12am 9 11 mph 1026.2mb 54f
6:06am 8 10 mph 1026.2mb 54f
6:00am 8 9 mph 1026.3mb 54f
5:54am 7 10 mph 1026.3mb 54f
5:48am 8 10 mph 1026.3mb 54f
5:36am 8 9 mph 1026.3mb 54f
5:30am 7 9 mph 1026.4mb 54f
5:24am 6 8 mph 1026.4mb 54f
5:18am 5 7 mph 1026.4mb 54f
5:12am 3 6 mph 1026.4mb 54f
5:06am 5 8 mph 1026.4mb 54f
5:00am 6 8 mph 1026.4mb 54f
4:54am 6 7 mph 1026.5mb 54f
4:48am 6 7 mph 1026.5mb 54f
4:36am 6 7 mph 1026.6mb 54f
4:30am 5 7 mph 1026.6mb 54f
4:24am 5 6 mph 1026.7mb 54f
4:18am 5 7 mph 1026.7mb 54f
4:12am 5 6 mph 1026.8mb 54f
4:06am 2 6 mph 1026.8mb 54f
4:00am 3 6 mph 1026.8mb 54f
3:54am 3 6 mph 1026.8mb 54f
3:48am 3 6 mph 1026.9mb 54f
3:36am 6 7 mph 1027mb 54f
3:30am 5 8 mph 1027mb 54f
3:24am 6 8 mph 1027mb 54f
3:18am 5 7 mph 1027.1mb 54f
3:12am 5 8 mph 1027.1mb 54f
3:06am 5 7 mph 1027.2mb 54f
3:00am 5 6 mph 1027.2mb 54f
2:54am 5 6 mph 1027.3mb 54f
2:48am 5 6 mph 1027.4mb 54f
2:36am  -  mph 1027.4mb 54f
2:30am  -  mph 1027.4mb 54f
2:24am  -  mph 1027.5mb 54f
2:18am  -  mph 1027.6mb 54f
2:12am  -  mph 1027.6mb 54f
2:06am  -  mph 1027.6mb 54f
2:00am  -  mph 1027.7mb 54f
1:54am  -  mph 1027.8mb 54f
1:48am  -  mph 1027.8mb 54f
1:36am 8 10 mph 1028mb 54f